This is the latest recevied weather packets stored in our database for station/object EA3KZ-1. If no packets are shown the sender has not sent any weather packets the latest 10 day(s).
| Time | Temp. | Humidity | Pressure | Rain* | Wind** | Luminosity | Snow |
|---|---|---|---|---|---|---|---|
| 1787961371 | 21.11° C | 53% | 1016.3 hPa | 0 mm | - | - | - |
| 1787960769 | 21.11° C | 52% | 1016.2 hPa | 0 mm | - | - | - |
| 1787960166 | 21.11° C | 51% | 1016.2 hPa | 0 mm | - | - | - |
| 1787959563 | 21.11° C | 50% | 1016.2 hPa | 0 mm | - | - | - |
| 1787958961 | 21.11° C | 49% | 1016.1 hPa | 0 mm | - | - | - |
| 1787958358 | 21.11° C | 47% | 1015.9 hPa | 0 mm | - | - | - |
| 1787957755 | 21.67° C | 44% | 1015.9 hPa | 0 mm | - | - | - |
| 1787957153 | 21.67° C | 43% | 1015.8 hPa | 0 mm | - | - | - |
| 1787956550 | 21.67° C | 45% | 1015.6 hPa | 0 mm | - | - | - |
| 1787955948 | 21.67° C | 47% | 1015.6 hPa | 0 mm | - | - | - |
| 1787955345 | 21.67° C | 49% | 1015.7 hPa | 0 mm | - | - | - |
| 1787954743 | 21.67° C | 47% | 1015.5 hPa | 0 mm | - | - | - |
| 1787954140 | 22.22° C | 41% | 1015.3 hPa | 0 mm | - | - | - |
| 1787953537 | 22.22° C | 39% | 1015 hPa | 0 mm | - | - | - |
| 1787952935 | 22.78° C | 38% | 1015 hPa | 0 mm | - | - | - |
| 1787952332 | 22.78° C | 38% | 1014.7 hPa | 0 mm | - | - | - |
| 1787951730 | 23.33° C | 38% | 1014.5 hPa | 0 mm | - | - | - |
| 1787951127 | 23.33° C | 37% | 1014.4 hPa | 0 mm | - | - | - |
| 1787950524 | 23.33° C | 37% | 1014.3 hPa | 0 mm | - | - | - |
| 1787949922 | 23.33° C | 37% | 1014.4 hPa | 0 mm | - | - | - |
| 1787949319 | 23.33° C | 37% | 1014.3 hPa | 0 mm | - | - | - |
| 1787948717 | 23.33° C | 35% | 1014.3 hPa | 0 mm | - | - | - |
| 1787948174 | 23.33° C | 35% | 1014.3 hPa | 0 mm | - | - | - |
| 1787947572 | 23.89° C | 34% | 1014.3 hPa | 0 mm | - | - | - |
| 1787946969 | 23.89° C | 33% | 1014.2 hPa | 0 mm | - | - | - |
* Rain latest hour (hover to see other rain measurements)
** Current wind speed in m/s (hover to see current wind gust speed)